STARLINK-36736, 67911

Orbit data source: Space-Track

STARLINK-36736, 67911 is a payload satellite owned by SpaceX/Seattle (US) in LEO that was launched on Sun, 22 Feb 2026 UTC via an FALCON 9 launch vehicle from the Air Force Eastern Test Range (AFETR). Payload-class satellites include a variety of spacecraft equipped with specific instruments for various scientific and technological missions. These include communications satellites like Starlink; space stations such as the ISS; scientific satellites like the Hubble; Earth observation satellites from companies like Planet Labs, Umbra, and HawkEye 360; GPS; miniature CubeSats for education and research; and military/defense satellites.

Loading next visibility...
Identifier
67911, 2026-036H
Orbit
LEO
Country
Flag of USUS
Related business
Manufacturer
SpaceX/Seattle
Mission
Operational spacecraft
Bus & Motor
STARLINK V2MO, Unknown motor
Mass
575 kg wet, ~530 kg dry
Launch date (UTC)
2026-02-22 (2 months ago)
Launch vehicle
FALCON 9
Launch site
Air Force Eastern Test Range (AFETR)
Object type
Payload
Rocket body
Debris
Shape & HBR
Unknown shape, 17.7 m
Radar Cross Section
RCS unknown

Expand to show TLE details & history
Last TLE update: 12 hours ago

TLE from 12 hours ago
0 STARLINK-36736
1 67911U 26036H   26103.88001294  .00008928  00000-0  33347-3 0  9995
2 67911  42.9988  46.5476 0000979 270.9411  89.1328 15.27587535  9106
Epoch: 2026-04-13T21:07Z
TLE epoch observation values (Epoch: 2026-04-13T21:07:13.118Z)
Latitude
-0.00003°
Longitude
-112.32136°
Altitude
482.792 km
Speed
7.626 km/s
True Right ascension
03h 06m 11s
True Declination
0° 00' 00"
Sunlit
Object was in daylight at epoch
Visualization orbit readout
Latitude
Unknown
Longitude
Unknown
Altitude
Unknown
Speed
Unknown
Apparent Right ascension
Unknown
Apparent Declination
Unknown
Sunlit
N/A
Visualization observer readout
Local Sidereal Time
15:09:54
Azimuth
Unknown
Elevation
Unknown
Doppler factor
Unknown
Orbital elements
Apogee altitude
485.644 km
Perigee altitude
484.3 km
Semi-major axis
6,863.109 km
Eccentricity
0.0001
Inclination
42.9988°
RAAN
46.5476°
Arg. of periapsis
270.9411°
True anomaly
89.14402°
Mean anomaly
89.1328°
Eccentric anomaly
89.13841°
Mean motion
3.81735 °/min
Orbital period
94.31 mins
BSTAR
0.00033347
Loading maneuver chart data...
Computing Atmospheric mass density...
Loading historical data...
Loading historical data...
Loading historical data...
Loading historical data...
Loading historical data...
Loading historical data...
Loading historical data...

Documentation

Showing up to 5 results
|